Starlink 6037

operational
NORAD ID: 56461 Int'l Des: 2023-064 Owner: SPXS Country: US Constellation: starlink
LEOCIRCULAR

Starlink 6037について

説明を読み込み中...

リアルタイム位置

3D地球を読み込み中...

次回通過

高度履歴

Altitude vs Time

uPlot chart will show altitude changes over time

軌道要素

1 56461U 23064P 25303.19855293 -.00000035 00000-0 48891-5 0 9996
2 56461 69.9985 113.3140 0002863 270.2662 89.8169 14.98329914135704
Epoch: Oct 30, 2025 • Age: 25 hours

現在のステータス

高度 589.1 km
速度 7.57 km/s
衛星直下点 -49.63°S, 46.77°W
打ち上げ日 May 10, 2023
運用期間 2.4 years
タイプ internet

技術仕様

分類 Payload
質量 305.00 kg
乾燥質量 290.00 kg
総質量 305.00 kg
長さ 0.20 m
直径 2.80 m
スパン 9.00 m
形状 Box + pan
製造者 SPXS
バスタイプ Starlink
フェーズステータス In Orbit
所有者/国 SPXS/US

大規模コンステレーション

Loading constellations...